Location: Austin
(30.3000°N, 97.7500°W)
Time: 08:08:04
(UTC-06:00)

ADEOS - Pass Details

Date: 12 February 2024
Orbit: 791 x 793 km, 98.9° (Epoch: 29 February)

Event Time Altitude Azimuth Distance (km) Brightness Sun altitude
Rises 18:39:45 0° 143° (SE) 3,277 6.5 -5.7°
Reaches altitude 10° 18:42:15 10° 134° (SE) 2,350 5.7 -6.2°
Maximum altitude 18:46:52 33° 71° (ENE) 1,299 4.2 -7.2°
Drops below altitude 10° 18:51:29 10° 8° (N) 2,359 5.8 -8.1°
Sets 18:53:59 0° 359° (N) 3,291 6.7 -8.7°
